Time,TemperatureF,DewpointF,PressureIn,WindDirection,WindDirectionDegrees,WindSpeedMPH,WindSpeedGustMPH,Humidity,HourlyPrecipIn,Conditions,Clouds,dailyrainin,SoftwareType,DateUTC
2013-01-28 00:04:00,19.0,1.0,30.46,North,0,0.0,-999.0,44,-99.99,,,-99.99,,2013-01-28 05:04:00,
2013-01-28 00:11:00,19.0,3.0,30.46,North,0,0.0,-999.0,48,-99.99,,,-99.99,,2013-01-28 05:11:00,
2013-01-28 00:21:00,19.0,3.0,30.46,North,0,0.0,-999.0,48,-99.99,,,-99.99,,2013-01-28 05:21:00,
2013-01-28 00:32:00,18.0,5.0,30.46,North,0,0.0,-999.0,57,-99.99,,,-99.99,,2013-01-28 05:32:00,
2013-01-28 00:42:00,19.0,3.0,30.46,North,0,0.0,-999.0,48,-99.99,,,-99.99,,2013-01-28 05:42:00,
2013-01-28 00:52:00,18.0,7.0,30.46,North,0,0.0,-999.0,62,-99.99,,,-99.99,,2013-01-28 05:52:00,
2013-01-28 01:02:00,18.0,7.0,30.46,North,0,0.0,-999.0,62,-99.99,,,-99.99,,2013-01-28 06:02:00,
2013-01-28 01:11:00,18.0,9.0,30.45,East,80,6.0,-999.0,67,-99.99,,,-99.99,,2013-01-28 06:11:00,
2013-01-28 01:22:00,18.0,7.0,30.46,East,80,3.0,-999.0,62,-99.99,,,-99.99,,2013-01-28 06:22:00,
2013-01-28 01:32:00,18.0,7.0,30.46,East,80,5.0,-999.0,62,-99.99,,,-99.99,,2013-01-28 06:32:00,
2013-01-28 01:42:00,18.0,7.0,30.46,East,90,5.0,-999.0,62,-99.99,,,-99.99,,2013-01-28 06:42:00,
2013-01-28 01:52:00,18.0,7.0,30.45,East,80,5.0,-999.0,62,-99.99,,,-99.99,,2013-01-28 06:52:00,
2013-01-28 02:02:00,18.0,7.0,30.45,East,80,5.0,-999.0,62,-99.99,,,-99.99,,2013-01-28 07:02:00,
2013-01-28 02:11:00,18.0,7.0,30.45,ENE,60,5.0,-999.0,62,-99.99,,,-99.99,,2013-01-28 07:11:00,
2013-01-28 02:21:00,18.0,5.0,30.45,ENE,60,3.0,-999.0,57,-99.99,,,-99.99,,2013-01-28 07:21:00,
2013-01-28 02:32:00,18.0,7.0,30.44,North,0,0.0,-999.0,62,-99.99,,,-99.99,,2013-01-28 07:32:00,
2013-01-28 02:42:00,18.0,5.0,30.44,North,0,0.0,-999.0,57,-99.99,,,-99.99,,2013-01-28 07:42:00,
2013-01-28 02:51:00,18.0,5.0,30.43,North,0,0.0,-999.0,57,-99.99,,,-99.99,,2013-01-28 07:51:00,
2013-01-28 03:01:00,18.0,5.0,30.43,North,0,0.0,-999.0,57,-99.99,,,-99.99,,2013-01-28 08:01:00,
2013-01-28 03:11:00,18.0,7.0,30.43,North,0,0.0,-999.0,62,-99.99,,,-99.99,,2013-01-28 08:11:00,
2013-01-28 03:21:00,18.0,7.0,30.42,North,0,0.0,-999.0,62,-99.99,,,-99.99,,2013-01-28 08:21:00,
2013-01-28 03:32:00,18.0,7.0,30.42,North,0,0.0,-999.0,62,-99.99,,,-99.99,,2013-01-28 08:32:00,
2013-01-28 03:42:00,18.0,7.0,30.42,North,0,0.0,-999.0,62,-99.99,,,-99.99,,2013-01-28 08:42:00,
2013-01-28 03:52:00,18.0,7.0,30.41,North,0,0.0,-999.0,62,-99.99,,,-99.99,,2013-01-28 08:52:00,
2013-01-28 04:02:00,18.0,7.0,30.41,North,0,0.0,-999.0,62,-99.99,,,-99.99,,2013-01-28 09:02:00,
2013-01-28 04:11:00,18.0,7.0,30.41,North,0,0.0,-999.0,62,-99.99,,,-99.99,,2013-01-28 09:11:00,
2013-01-28 04:22:00,18.0,7.0,30.40,North,0,0.0,-999.0,62,-99.99,,,-99.99,,2013-01-28 09:22:00,
2013-01-28 04:32:00,19.0,9.0,30.40,North,0,0.0,-999.0,62,-99.99,,,-99.99,,2013-01-28 09:32:00,
2013-01-28 04:42:00,19.0,9.0,30.40,North,0,0.0,-999.0,62,-99.99,,,-99.99,,2013-01-28 09:42:00,
2013-01-28 04:52:00,18.0,9.0,30.40,North,0,0.0,-999.0,67,-99.99,,,-99.99,,2013-01-28 09:52:00,
2013-01-28 05:02:00,18.0,9.0,30.40,North,0,0.0,-999.0,67,-99.99,,,-99.99,,2013-01-28 10:02:00,
2013-01-28 05:11:00,18.0,9.0,30.40,North,0,0.0,-999.0,67,-99.99,,,-99.99,,2013-01-28 10:11:00,
2013-01-28 05:21:00,18.0,9.0,30.39,North,0,0.0,-999.0,67,-99.99,,,-99.99,,2013-01-28 10:21:00,
2013-01-28 05:32:00,18.0,9.0,30.39,North,0,0.0,-999.0,67,-99.99,,,-99.99,,2013-01-28 10:32:00,
2013-01-28 05:42:00,18.0,9.0,30.39,North,0,0.0,-999.0,67,-99.99,,,-99.99,,2013-01-28 10:42:00,
2013-01-28 05:51:00,18.0,9.0,30.38,NNE,30,3.0,-999.0,67,-99.99,,,-99.99,,2013-01-28 10:51:00,
2013-01-28 06:02:00,18.0,9.0,30.38,NNE,30,3.0,-999.0,67,-99.99,,,-99.99,,2013-01-28 11:02:00,
2013-01-28 06:11:00,18.0,9.0,30.39,North,0,0.0,-999.0,67,-99.99,,,-99.99,,2013-01-28 11:11:00,
2013-01-28 06:22:00,18.0,9.0,30.39,North,0,0.0,-999.0,67,-99.99,,,-99.99,,2013-01-28 11:22:00,
2013-01-28 06:32:00,18.0,9.0,30.38,NNE,30,3.0,-999.0,67,-99.99,,,-99.99,,2013-01-28 11:32:00,
2013-01-28 06:42:00,18.0,9.0,30.38,NNE,30,3.0,-999.0,67,-99.99,,,-99.99,,2013-01-28 11:42:00,
2013-01-28 06:52:00,18.0,7.0,30.38,NE,40,3.0,-999.0,62,-99.99,,,-99.99,,2013-01-28 11:52:00,
2013-01-28 07:03:00,18.0,7.0,30.38,NE,40,3.0,-999.0,62,-99.99,,,-99.99,,2013-01-28 12:03:00,
2013-01-28 07:12:00,18.0,9.0,30.37,North,0,0.0,-999.0,67,-99.99,,,-99.99,,2013-01-28 12:12:00,
2013-01-28 07:23:00,18.0,9.0,30.37,NE,40,3.0,-999.0,67,-99.99,,,-99.99,,2013-01-28 12:23:00,
2013-01-28 07:33:00,18.0,7.0,30.37,North,0,0.0,-999.0,62,-99.99,,,-99.99,,2013-01-28 12:33:00,
2013-01-28 07:42:00,18.0,9.0,30.37,North,0,0.0,-999.0,67,-99.99,,,-99.99,,2013-01-28 12:42:00,
2013-01-28 07:52:00,18.0,9.0,30.37,NE,50,3.0,-999.0,67,-99.99,,,-99.99,,2013-01-28 12:52:00,
2013-01-28 08:03:00,18.0,9.0,30.37,NE,50,3.0,-999.0,67,-99.99,,,-99.99,,2013-01-28 13:03:00,
2013-01-28 08:12:00,18.0,9.0,30.36,NE,50,3.0,-999.0,67,-99.99,,,-99.99,,2013-01-28 13:12:00,
2013-01-28 08:23:00,18.0,9.0,30.36,North,0,0.0,-999.0,67,-99.99,,,-99.99,,2013-01-28 13:23:00,
2013-01-28 08:33:00,18.0,9.0,30.36,North,0,0.0,-999.0,67,-99.99,,,-99.99,,2013-01-28 13:33:00,
2013-01-28 08:42:00,18.0,9.0,30.35,ENE,70,3.0,-999.0,67,-99.99,,,-99.99,,2013-01-28 13:42:00,
2013-01-28 08:52:00,19.0,9.0,30.33,ENE,60,7.0,-999.0,62,-99.99,,,-99.99,,2013-01-28 13:52:00,
2013-01-28 09:03:00,19.0,9.0,30.33,ENE,60,7.0,-999.0,62,-99.99,,,-99.99,,2013-01-28 14:03:00,
2013-01-28 09:12:00,19.0,9.0,30.33,East,80,5.0,-999.0,62,-99.99,,,-99.99,,2013-01-28 14:12:00,
2013-01-28 09:22:00,19.0,9.0,30.32,East,80,5.0,-999.0,62,-99.99,,,-99.99,,2013-01-28 14:22:00,
2013-01-28 09:33:00,19.0,9.0,30.31,East,90,3.0,-999.0,62,-99.99,,,-99.99,,2013-01-28 14:33:00,
2013-01-28 09:43:00,19.0,10.0,30.31,East,80,3.0,-999.0,67,-99.99,,,-99.99,,2013-01-28 14:43:00,
2013-01-28 09:52:00,21.0,9.0,30.31,East,90,3.0,-999.0,57,-99.99,,,-99.99,,2013-01-28 14:52:00,
2013-01-28 10:03:00,21.0,9.0,30.31,East,90,3.0,-999.0,57,-99.99,,,-99.99,,2013-01-28 15:03:00,
2013-01-28 10:12:00,21.0,10.0,30.30,East,80,5.0,-999.0,62,-99.99,,,-99.99,,2013-01-28 15:12:00,
2013-01-28 10:23:00,21.0,10.0,30.30,East,80,5.0,-999.0,62,-99.99,,,-99.99,,2013-01-28 15:23:00,
2013-01-28 10:33:00,21.0,10.0,30.29,East,80,6.0,-999.0,62,-99.99,,,-99.99,,2013-01-28 15:33:00,
2013-01-28 10:43:00,21.0,10.0,30.29,ENE,60,3.0,-999.0,62,-99.99,,,-99.99,,2013-01-28 15:43:00,
2013-01-28 10:52:00,21.0,10.0,30.28,East,100,3.0,-999.0,62,-99.99,,,-99.99,,2013-01-28 15:52:00,
2013-01-28 11:04:00,21.0,10.0,30.28,East,100,3.0,-999.0,62,-99.99,,,-99.99,,2013-01-28 16:04:00,
2013-01-28 11:12:00,23.0,10.0,30.27,East,100,5.0,-999.0,57,-99.99,,,-99.99,,2013-01-28 16:12:00,
2013-01-28 11:22:00,23.0,12.0,30.27,SE,140,7.0,-999.0,62,-99.99,,,-99.99,,2013-01-28 16:22:00,
2013-01-28 11:32:00,23.0,16.0,30.26,SSE,160,6.0,-999.0,73,-99.99,,,-99.99,,2013-01-28 16:32:00,
2013-01-28 11:43:00,21.0,18.0,30.25,SSE,160,5.0,-999.0,85,-99.99,,,-99.99,,2013-01-28 16:43:00,
2013-01-28 11:52:00,21.0,18.0,30.23,SE,140,6.0,-999.0,85,-99.99,,,-99.99,,2013-01-28 16:52:00,
2013-01-28 12:02:00,21.0,18.0,30.23,SE,140,6.0,-999.0,85,-99.99,,,-99.99,,2013-01-28 17:02:00,
2013-01-28 12:12:00,21.0,19.0,30.22,ESE,110,3.0,-999.0,92,-99.99,,,-99.99,,2013-01-28 17:12:00,
2013-01-28 12:22:00,21.0,19.0,30.20,North,0,0.0,-999.0,92,-99.99,,,-99.99,,2013-01-28 17:22:00,
2013-01-28 12:31:00,23.0,19.0,30.18,ESE,110,5.0,-999.0,85,-99.99,,,-99.99,,2013-01-28 17:31:00,
2013-01-28 12:41:00,23.0,19.0,30.17,SE,130,3.0,-999.0,85,-99.99,,,-99.99,,2013-01-28 17:41:00,
2013-01-28 12:52:00,23.0,19.0,30.16,ESE,110,3.0,-999.0,85,-99.99,,,-99.99,,2013-01-28 17:52:00,
2013-01-28 13:03:00,23.0,19.0,30.16,ESE,110,3.0,-999.0,85,-99.99,,,-99.99,,2013-01-28 18:03:00,
2013-01-28 13:12:00,23.0,19.0,30.13,North,0,0.0,-999.0,85,-99.99,,,-99.99,,2013-01-28 18:12:00,
2013-01-28 13:23:00,23.0,19.0,30.12,North,0,0.0,-999.0,85,-99.99,,,-99.99,,2013-01-28 18:23:00,
2013-01-28 13:33:00,25.0,21.0,30.09,North,0,0.0,-999.0,85,-99.99,,,-99.99,,2013-01-28 18:33:00,
2013-01-28 13:42:00,25.0,21.0,30.08,East,80,5.0,-999.0,85,-99.99,,,-99.99,,2013-01-28 18:42:00,
2013-01-28 13:52:00,23.0,21.0,30.08,NNE,30,5.0,-999.0,92,-99.99,,,-99.99,,2013-01-28 18:52:00,
2013-01-28 14:02:00,23.0,21.0,30.08,NNE,30,5.0,-999.0,92,-99.99,,,-99.99,,2013-01-28 19:02:00,
2013-01-28 14:12:00,21.0,19.0,30.08,NNE,30,7.0,-999.0,92,-99.99,,,-99.99,,2013-01-28 19:12:00,
2013-01-28 14:22:00,21.0,19.0,30.08,North,10,7.0,-999.0,92,-99.99,,,-99.99,,2013-01-28 19:22:00,
2013-01-28 14:33:00,21.0,19.0,30.08,NNE,20,9.0,-999.0,92,-99.99,,,-99.99,,2013-01-28 19:33:00,
2013-01-28 14:42:00,21.0,19.0,30.08,North,10,10.0,-999.0,92,-99.99,,,-99.99,,2013-01-28 19:42:00,
2013-01-28 14:52:00,23.0,21.0,30.08,NNE,20,8.0,-999.0,92,-99.99,,,-99.99,,2013-01-28 19:52:00,
2013-01-28 15:03:00,23.0,21.0,30.08,NNE,20,8.0,-999.0,92,-99.99,,,-99.99,,2013-01-28 20:03:00,
2013-01-28 15:11:00,21.0,21.0,30.08,NNE,30,5.0,-999.0,100,-99.99,,,-99.99,,2013-01-28 20:11:00,
2013-01-28 15:21:00,21.0,19.0,30.07,NNE,30,6.0,-999.0,92,-99.99,,,-99.99,,2013-01-28 20:21:00,
2013-01-28 15:32:00,21.0,19.0,30.07,NNE,30,6.0,-999.0,92,-99.99,,,-99.99,,2013-01-28 20:32:00,
2013-01-28 15:42:00,21.0,19.0,30.06,NNE,20,8.0,-999.0,92,-99.99,,,-99.99,,2013-01-28 20:42:00,
2013-01-28 15:52:00,21.0,19.0,30.05,NE,40,6.0,-999.0,92,-99.99,,,-99.99,,2013-01-28 20:52:00,
2013-01-28 16:03:00,21.0,19.0,30.05,NE,40,6.0,-999.0,92,-99.99,,,-99.99,,2013-01-28 21:03:00,
2013-01-28 16:11:00,21.0,19.0,30.05,NE,50,6.0,-999.0,92,-99.99,,,-99.99,,2013-01-28 21:11:00,
2013-01-28 16:21:00,21.0,19.0,30.04,NNE,30,7.0,-999.0,92,-99.99,,,-99.99,,2013-01-28 21:21:00,
2013-01-28 16:32:00,21.0,19.0,30.04,NNE,30,7.0,-999.0,92,-99.99,,,-99.99,,2013-01-28 21:32:00,
2013-01-28 16:41:00,21.0,19.0,30.03,NE,50,5.0,-999.0,92,-99.99,,,-99.99,,2013-01-28 21:41:00,
2013-01-28 16:52:00,21.0,21.0,30.01,NE,40,8.0,-999.0,100,-99.99,,,-99.99,,2013-01-28 21:52:00,
2013-01-28 17:02:00,21.0,21.0,30.01,NE,40,8.0,-999.0,100,-99.99,,,-99.99,,2013-01-28 22:02:00,
2013-01-28 17:11:00,21.0,21.0,30.02,NNE,20,7.0,-999.0,100,-99.99,,,-99.99,,2013-01-28 22:11:00,
2013-01-28 17:22:00,21.0,21.0,30.01,NNE,20,6.0,-999.0,100,-99.99,,,-99.99,,2013-01-28 22:22:00,
2013-01-28 17:31:00,21.0,21.0,30.00,NNE,20,5.0,-999.0,100,-99.99,,,-99.99,,2013-01-28 22:31:00,
2013-01-28 17:42:00,23.0,21.0,30.01,North,360,7.0,-999.0,92,-99.99,,,-99.99,,2013-01-28 22:42:00,
2013-01-28 17:52:00,23.0,21.0,30.01,North,10,8.0,-999.0,92,-99.99,,,-99.99,,2013-01-28 22:52:00,
2013-01-28 18:02:00,23.0,21.0,30.01,North,10,8.0,-999.0,92,-99.99,,,-99.99,,2013-01-28 23:02:00,
2013-01-28 18:11:00,23.0,21.0,30.02,NNE,20,6.0,-999.0,92,-99.99,,,-99.99,,2013-01-28 23:11:00,
2013-01-28 18:21:00,23.0,21.0,30.01,North,10,7.0,-999.0,92,-99.99,,,-99.99,,2013-01-28 23:21:00,
2013-01-28 18:31:00,23.0,21.0,30.02,North,10,6.0,-999.0,92,-99.99,,,-99.99,,2013-01-28 23:31:00,
2013-01-28 18:41:00,23.0,21.0,30.01,NE,40,6.0,-999.0,92,-99.99,,,-99.99,,2013-01-28 23:41:00,
2013-01-28 18:52:00,25.0,21.0,30.01,NE,40,3.0,-999.0,85,-99.99,,,-99.99,,2013-01-28 23:52:00,
2013-01-28 19:02:00,25.0,21.0,30.01,NE,40,3.0,-999.0,85,-99.99,,,-99.99,,2013-01-29 00:02:00,
2013-01-28 19:12:00,25.0,23.0,30.00,NE,40,5.0,-999.0,92,-99.99,,,-99.99,,2013-01-29 00:12:00,
2013-01-28 19:22:00,25.0,23.0,29.99,North,0,0.0,-999.0,92,-99.99,,,-99.99,,2013-01-29 00:22:00,
2013-01-28 19:32:00,25.0,23.0,29.99,NNE,30,3.0,-999.0,92,-99.99,,,-99.99,,2013-01-29 00:32:00,
2013-01-28 19:42:00,25.0,23.0,29.99,North,0,0.0,-999.0,92,-99.99,,,-99.99,,2013-01-29 00:42:00,
2013-01-28 19:52:00,25.0,23.0,29.99,NNE,20,3.0,-999.0,92,-99.99,,,-99.99,,2013-01-29 00:52:00,
2013-01-28 20:02:00,25.0,23.0,29.99,NNE,20,3.0,-999.0,92,-99.99,,,-99.99,,2013-01-29 01:02:00,
2013-01-28 20:12:00,25.0,23.0,29.99,North,10,5.0,-999.0,92,-99.99,,,-99.99,,2013-01-29 01:12:00,
2013-01-28 20:23:00,25.0,23.0,29.98,NNE,20,5.0,-999.0,92,-99.99,,,-99.99,,2013-01-29 01:23:00,
2013-01-28 20:32:00,25.0,23.0,29.98,NNE,20,5.0,-999.0,92,-99.99,,,-99.99,,2013-01-29 01:32:00,
2013-01-28 20:42:00,25.0,25.0,29.97,NNE,20,5.0,-999.0,100,-99.99,,,-99.99,,2013-01-29 01:42:00,
2013-01-28 20:52:00,25.0,25.0,29.96,NNE,20,5.0,-999.0,100,-99.99,,,-99.99,,2013-01-29 01:52:00,
2013-01-28 21:02:00,25.0,25.0,29.96,NNE,20,5.0,-999.0,100,-99.99,,,-99.99,,2013-01-29 02:02:00,
2013-01-28 21:12:00,25.0,25.0,29.96,North,10,5.0,-999.0,100,-99.99,,,-99.99,,2013-01-29 02:12:00,
2013-01-28 21:22:00,25.0,25.0,29.96,NNE,20,5.0,-999.0,100,-99.99,,,-99.99,,2013-01-29 02:22:00,
2013-01-28 21:33:00,25.0,25.0,29.96,NNE,20,3.0,-999.0,100,-99.99,,,-99.99,,2013-01-29 02:33:00,
2013-01-28 21:42:00,25.0,25.0,29.96,NNE,20,3.0,-999.0,100,-99.99,,,-99.99,,2013-01-29 02:42:00,
2013-01-28 21:52:00,25.0,25.0,29.96,NNE,30,3.0,-999.0,100,-99.99,,,-99.99,,2013-01-29 02:52:00,
2013-01-28 22:03:00,25.0,25.0,29.96,NNE,30,3.0,-999.0,100,-99.99,,,-99.99,,2013-01-29 03:03:00,
2013-01-28 22:11:00,27.0,25.0,29.95,NNE,30,5.0,-999.0,92,-99.99,,,-99.99,,2013-01-29 03:11:00,
2013-01-28 22:21:00,25.0,25.0,29.95,NNE,20,5.0,-999.0,100,-99.99,,,-99.99,,2013-01-29 03:21:00,
2013-01-28 22:31:00,25.0,25.0,29.95,NNE,20,6.0,-999.0,100,-99.99,,,-99.99,,2013-01-29 03:31:00,
2013-01-28 22:41:00,25.0,25.0,29.95,NNE,30,3.0,-999.0,100,-99.99,,,-99.99,,2013-01-29 03:41:00,
2013-01-28 22:52:00,25.0,25.0,29.95,NNE,20,6.0,-999.0,100,-99.99,,,-99.99,,2013-01-29 03:52:00,
2013-01-28 23:02:00,25.0,25.0,29.95,NNE,20,6.0,-999.0,100,-99.99,,,-99.99,,2013-01-29 04:02:00,
2013-01-28 23:11:00,25.0,25.0,29.96,NNE,30,3.0,-999.0,100,-99.99,,,-99.99,,2013-01-29 04:11:00,
2013-01-28 23:22:00,25.0,25.0,29.96,NNE,20,5.0,-999.0,100,-99.99,,,-99.99,,2013-01-29 04:22:00,
2013-01-28 23:32:00,27.0,25.0,29.97,North,10,5.0,-999.0,92,-99.99,,,-99.99,,2013-01-29 04:32:00,
2013-01-28 23:42:00,27.0,25.0,29.97,NNE,20,5.0,-999.0,92,-99.99,,,-99.99,,2013-01-29 04:42:00,
2013-01-28 23:52:00,27.0,25.0,29.98,NNE,20,5.0,-999.0,92,-99.99,,,-99.99,,2013-01-29 04:52:00,